Regional Weather Roundup
Issued by NWS

Home | Current Version | Previous Version | Graphics & Text | Print | Product List | Glossary On
Versions: 1 2 3 4 5 6 7 8 9 10 11 12 13 14 15 16 17 18 19 20 21 22 23 24 25 26 27 28 29 30 31 32 33 34 35 36 37 38 39 40 41 42 43 44 45 46 47 48 49 50
964
ASUS43 KBIS 160202
RWRND

NORTH DAKOTA REGIONAL WEATHER ROUNDUP
NATIONAL WEATHER SERVICE BISMARCK ND
800 PM CST MON JAN 15 2018

NOTE: "FAIR" INDICATES FEW OR NO CLOUDS BELOW 12,000 FEET WITH NO
SIGNIFICANT WEATHER AND/OR OBSTRUCTIONS TO VISIBILITY.


NDZ001>003-009>011-017-160300-
NORTHWEST NORTH DAKOTA

CITY           SKY/WX    TMP DP  RH WIND       PRES   REMARKS
WILLISTON      PTCLDY   -15 -20  78 W3        30.82F
MINOT          CLOUDY   -13 -19  75 SW7       30.81F WCI -29
MINOT AFB      CLOUDY   -17 -23  73 W8        30.81F WCI -35
$$

NDZ018>021-031>035-040>046-160300-
SOUTHWEST NORTH DAKOTA

CITY           SKY/WX    TMP DP  RH WIND       PRES   REMARKS
BISMARCK       CLEAR    -10 -17  71 NW9       30.84S WCI -27
DICKINSON      CLEAR    -16 -22  74 W6        30.72F WCI -31
GARRISON         N/A    -16 -22  74 NW10      30.80S WCI -36
HETTINGER ARPT CLEAR    -15 -21  74 N9        30.73F WCI -34
$$

NDZ004>008-012>016-024-026-027-054-160300-
NORTHEAST NORTH DAKOTA

CITY           SKY/WX    TMP DP  RH WIND       PRES   REMARKS
GRAND FORKS    MOCLDY    -9 -15  75 N18       30.84R WCI -33
GRND FRKS AFB  FAIR     -10 -18  66 N16       30.84S WCI -33
DEVILS LAKE    FAIR     -14 -20  74 NW13      30.82S WCI -36
$$

NDZ022-023-025-028>030-036>039-047>053-160300-
SOUTHEAST NORTH DAKOTA

CITY           SKY/WX    TMP DP  RH WIND       PRES   REMARKS
FARGO          CLOUDY    -9 -14  78 N20       30.81R HAZE    WCI -34
JAMESTOWN      CLOUDY   -10 -16  74 N17       30.77S WCI -34
$$





USA.gov is the U.S. government's official web portal to all federal, state and local government web resources and services.